Terug naar catalogus

STARLINK-11231

ActiefCommunicatieVLEO
NORAD 61057·PAYLOAD·🇺🇸 United States

Gelanceerd Sep 13, 2024 vanaf Vandenberg Space Force Base

Loading…

Volgende Passages (komende 24 uur)

TLE

VersSource: CelesTrak SupGP

Epoch: Sep 15, 2026, 03:18 UTC

1 61057C 24164H   26258.13798611  .00006193  00000+0  50972-4 0  2588
2 61057  53.1566  97.7138 0001114  77.8333 117.2664 15.69724279    10

Volg STARLINK-11231 in realtime met AllMySat

Download on the App Store